This is the latest recevied weather packets stored in our database for station/object KC8ZBC. If no packets are shown the sender has not sent any weather packets the latest 10 day(s).
| Time | Temp. | Humidity | Pressure | Rain* | Wind** | Luminosity | Snow |
|---|---|---|---|---|---|---|---|
| 1776885957 | 22.22° C | 47% | 989.4 hPa | 0 mm | - | 176 W/m² | - |
| 1776885654 | 22.22° C | 47% | 989.5 hPa | 0 mm | - | 157 W/m² | - |
| 1776885350 | 21.67° C | 48% | 989.6 hPa | 0 mm | - | 194 W/m² | - |
| 1776885048 | 22.22° C | 47% | 989.5 hPa | 0 mm | - | 492 W/m² | - |
| 1776884744 | 22.22° C | 47% | 989.6 hPa | 0 mm | - | 443 W/m² | - |
| 1776884442 | 22.22° C | 47% | 989.5 hPa | 0 mm | - | 601 W/m² | - |
| 1776884139 | 21.67° C | 47% | 989.8 hPa | 0 mm | - | 182 W/m² | - |
| 1776883836 | 22.22° C | 45% | 989.8 hPa | 0 mm | - | 432 W/m² | - |
| 1776883534 | 21.67° C | 47% | 989.7 hPa | 0 mm | - | 487 W/m² | - |
| 1776883232 | 21.67° C | 47% | 989.8 hPa | 0 mm | - | 387 W/m² | - |
| 1776882928 | 21.67° C | 47% | 990 hPa | 0 mm | - | 495 W/m² | - |
| 1776882625 | 21.67° C | 47% | 989.8 hPa | 0 mm | - | 226 W/m² | - |
| 1776882322 | 21.11° C | 48% | 990.1 hPa | 0 mm | - | 639 W/m² | - |
| 1776882017 | 20.56° C | 49% | 990.1 hPa | 0 mm | - | 221 W/m² | - |
| 1776881715 | 20.56° C | 49% | 989.9 hPa | 0 mm | - | 246 W/m² | - |
| 1776881410 | 20.56° C | 49% | 990 hPa | 0 mm | - | 215 W/m² | - |
| 1776881108 | 21.67° C | 48% | 990.1 hPa | 0 mm | - | 231 W/m² | - |
| 1776880804 | 20.56° C | 49% | 990.1 hPa | 0 mm | - | 269 W/m² | - |
| 1776880499 | 21.11° C | 48% | 990 hPa | 0 mm | - | 236 W/m² | - |
| 1776880195 | 20.56° C | 49% | 990.2 hPa | 0 mm | - | 586 W/m² | - |
* Rain latest hour (hover to see other rain measurements)
** Current wind speed in m/s (hover to see current wind gust speed)